Regional Weather Roundup
Issued by NWS

Home | Current Version | Previous Version | Text Only | Print | Product List | Glossary Off
Versions: 1 2 3 4 5 6 7 8 9 10 11 12 13 14 15 16 17 18 19 20 21 22 23 24 25 26 27

000
ASUS45 KSLC 251210
RWRUT

UTAH REGIONAL WEATHER ROUNDUP
NATIONAL WEATHER SERVICE SALT LAKE CITY UT
600 AM MDT SAT MAR 25 2017

UTZ001>011-023>025-251300-

NORTHERN UTAH

CITY           SKY/WX    TMP DP  RH WIND       PRES   REMARKS
BRIGHAM CITY     N/A     46  41  81 W5        30.03R
HILL AFB       CLOUDY    46  37  70 N8        30.01R
LOGAN          LGT RAIN  46  41  82 N7        30.02S
OGDEN          CLOUDY    46  39  76 N10       30.00S
SALT LAKE CITY CLOUDY    50  38  63 NW15      30.00R
WENDOVER       RAIN      44  37  76 NW12      30.05R
HEBER CITY     CLOUDY    37  28  70 CALM      29.99F

$$

UTZ011>015-024>027-251300-

CENTRAL/NORTHEAST UTAH

CITY           SKY/WX    TMP DP  RH WIND       PRES   REMARKS
PROVO AIRPORT  CLOUDY    45  34  65 S6        30.01S
MOAB/CANYONLAN PTCLDY    42  26  53 CALM      30.03F
DELTA          CLOUDY    45  32  61 CALM      29.99S
PRICE          CLOUDY    38  32  79 NE6       30.04F WCI  33
RICHFIELD      CLOUDY    41  32  70 CALM      30.04F
ROOSEVELT      CLEAR     36  34  93 CALM      30.08R
VERNAL         CLOUDY    35  29  78 W6        30.05F WCI  30

$$

UTZ013>016-019>022-027-251300-

SOUTHERN UTAH

CITY           SKY/WX    TMP DP  RH WIND       PRES   REMARKS
BRYCE CANYON   CLOUDY    29  25  85 SW3       30.11F
CEDAR CITY     CLOUDY    41  28  60 SE5       30.02F
MILFORD        CLOUDY    46  27  47 SW14      29.99F
ST GEORGE      CLOUDY    51  36  56 CALM      30.00F
HANKSVILLE     MOCLDY    39  32  75 CALM      30.04F
BLANDING       PTCLDY    36  23  59 N10       30.18F WCI  28

$$

REGIONAL REPORTS     COLORADO/ARIZONA

CITY           SKY/WX    TMP DP  RH WIND       PRES   REMARKS
CRAIG, CO      CLOUDY    25  20  81 W3        30.11F
GRAND JUNCTION CLOUDY    41  28  60 SE8       30.08F
RIFLE, CO      CLOUDY    30  24  78 SE3       30.13F
MONTROSE, CO   CLOUDY    32  26  78 CALM      30.15S
CORTEZ, CO     CLOUDY    27  24  89 NE6       30.15S WCI  20
COLORADO CITY    N/A     39  36  87 CALM      30.08F
PAGE, AZ       CLOUDY    47  32  56 CALM      30.04F
GRAND CANYON   CLOUDY    30  28  92 CALM      30.13F
KINGMAN, AZ    CLOUDY    51  20  29 E9        30.03F
FLAGSTAFF, AZ  MOCLDY    29  27  92 CALM      30.14F

$$

REGIONAL REPORTS    NEVADA/IDAHO/WYOMING

CITY           SKY/WX    TMP DP  RH WIND       PRES   REMARKS
LAS VEGAS, NV  CLOUDY    64  34  32 S13G23    29.92F
ELY, NY        SNOW      32  32 100 NW6       30.04F WCI  26
ELKO, NV       CLOUDY    41  32  70 CALM      30.06S
POCATELLO, ID  CLOUDY    41  37  86 SW12      30.05S
BURLEY, ID     CLOUDY    41  36  82 SW10      30.05S
FORT BRIDGER,    N/A     38  31  74 CALM      30.06S
EVANSTON, WY   CLOUDY    37  20  50 CALM      30.02F
ROCK SPRINGS,  CLOUDY    36  29  75 E3        30.03F
KEMMERER, WY     N/A     32  27  80 N7        30.04S WCI  26

$$




USA.gov is the U.S. government's official web portal to all federal, state and local government web resources and services.